Location: 5810 Zion Rd, Cleves, OH 45002, USA
(39.1922°N, 84.7113°W)
Time: 20:36:09
(UTC-05:00)

Vanguard 3 - Pass Details

Date: 18 December 2019
Orbit: 507 x 3263 km, 33.4° (Epoch: 22 January)

Event Time Altitude Azimuth Distance (km) Brightness Sun altitude
Rises 08:30:43 0° 261° (W) 3,312 9.9 5.3°
Reaches altitude 10° 08:32:45 10° 257° (WSW) 2,597 9.4 5.6°
Maximum altitude 08:38:53 58° 180° (S) 1,486 8.9 6.6°
Drops below altitude 10° 08:49:55 10° 105° (ESE) 4,532 12.4 8.2°
Sets 08:54:36 0° 103° (ESE) 5,986 12.8 8.9°
